ギブス彗星

C/2006 U7 ( Gibbs )

English version
Home page
Updated on April 21, 2007

---------------------------------------------------------------------

・ プロフィール

発見日 2006年10月28日
発見光度 20.8等
発見者 Alex R. Gibbs (Mt. Lemmon Survey)

・ 軌道要素

The following orbital elements are taken from MPC 59042:

Epoch 2007 Apr. 10.0 TT = JDT 2454200.5
T 2007 Mar. 29.0345 TT                                  MPC
q   4.423375             (2000.0)            P               Q
n   0.0237104      Peri.   13.0411      +0.3303184      -0.9378519
a  11.999876       Node    57.7628      +0.8542995      +0.2491298
e   0.631382       Incl.    7.2273      +0.4013255      +0.2415950
P  41.6
From 52 observations 2006 Oct. 28-2007 Jan. 15, mean residual 0".5.

・ 光度変化

        m1 = 11.0 + 5 logΔ + 10.0 log r

---------------------------------------------------------------------

軌道要素はMPCのEphemerides and Orbital Elementsに掲載されたものです。
光度グラフはComet for Windowsで作成したものです。

---------------------------------------------------------------------

Copyright(C) Seiichi Yoshida (comet@aerith.net). All rights reserved.